Location: Unspecified
(40.9833°N, 0.0000°E)
Time: 01:00:56
(UTC+00:00)

OTV 5 (USA 277) - Visible Passes

Search period start: 15 October 2019 00:00
Search period end: 25 October 2019 00:00
Orbit: 310 x 324 km, 54.5° (Epoch: 08 October)

Date Brightness Start Highest point End Pass type
(mag) Time Alt. Az. Time Alt. Az. Time Alt. Az.
15 Oct ? 05:25:45 10° N 05:27:16 14° NNE 05:28:47 10° ENE visible
16 Oct ? 05:39:41 10° NNW 05:42:04 25° NNE 05:44:26 10° E visible
17 Oct ? 04:21:38 11° NNE 04:21:56 11° NNE 04:22:38 10° NE visible
18 Oct ? 04:36:01 16° N 04:36:48 18° NNE 04:38:49 10° ENE visible
19 Oct ? 04:50:31 27° NNW 04:51:32 39° NE 04:54:07 10° ESE visible
20 Oct ? 05:05:08 34° WNW 05:06:07 68° SW 05:08:49 10° SE visible
21 Oct ? 05:19:54 20° WSW 05:20:32 22° SW 05:22:43 10° S visible
